Temp
49 42 38 43 46 48 45 42 39 41 47 44 44 44 47 48 47 46 45 46 47 48 49 49 49 49 48 49 50 55 57 58 56 51 49 51 51 51 48 47 47 47 47 48
45 39 47 49 49 47 44 40 38 43 45 44 42 42 47 47 47 49 49 48 48 47 46 47 47 47 47 48 49 50 54 55 56 54 51 54 52 51 49 46 45 46 46 46
41 46 51 49 45 45 42 39 40 41 42 42 39 37 40 46 49 50 52 53 51 49 46 46 46 45 45 46 47 49 50 52 53 53 54 53 52 50 47 44 43 44 45 45
43 49 48 45 44 45 38 47 45 43 38 30 39 26 35 41 43 46 50 50 49 49 48 47 46 45 45 45 45 47 48 49 51 52 53 52 50 48 44 43 42 42 43 43
41 43 43 41 44 47 43 47 44 43 38 35 32 29 34 39 41 43 46 49 48 48 47 46 46 47 45 44 44 45 46 47 48 53 54 53 51 49 46 42 41 41 41 42
44 48 46 46 48 48 49 45 42 40 36 21 32 30 30 35 41 43 45 46 47 46 46 47 47 46 44 43 43 43 44 45 46 50 52 51 49 47 44 40 38 38 39 40
41 42 46 47 42 46 44 37 25 22 21 24 35 31 34 42 46 45 46 46 44 45 44 44 43 43 43 41 41 42 43 42 44 46 47 49 48 47 45 41 39 38 38 38
33 31 43 48 45 41 40 39 28 22 22 27 33 29 38 45 45 46 46 46 44 42 44 43 43 42 41 41 41 41 41 41 41 42 41 43 43 42 41 40 39 37 37 38
33 33 44 45 46 48 40 33 41 32 26 25 30 35 43 43 42 42 44 43 41 42 43 42 41 41 41 41 41 40 39 39 39 39 39 39 39 39 39 38 38 37 38 39
40 32 39 43 46 45 43 45 33 31 18 19 27 29 36 39 42 41 41 41 40 39 39 38 38 39 39 39 39 38 38 38 37 38 37 38 37 37 37 37 36 36 37 37
41 37 34 39 38 38 38 36 37 36 31 26 23 29 39 42 43 43 42 42 40 38 37 37 37 37 38 37 37 37 36 36 35 35 35 35 35 36 36 36 36 36 36 36
41 37 28 33 41 42 40 40 39 31 28 29 30 33 44 44 45 43 42 42 39 38 37 36 37 36 35 36 35 35 35 35 34 34 34 34 35 36 36 36 36 37 36 36
41 27 18 27 33 35 36 38 41 40 36 33 28 33 41 41 41 41 40 40 39 37 35 34 34 34 35 35 34 34 34 34 34 34 33 33 33 33 34 35 36 37 36 35
45 34 30 26 30 34 32 37 38 39 32 34 34 38 45 43 41 41 40 40 38 37 37 35 34 35 35 35 34 34 33 34 33 33 32 32 32 33 33 34 34 34 34 32
40 24 26 33 34 32 33 34 35 35 38 32 38 38 44 48 48 49 44 43 39 36 35 36 36 35 34 33 33 34 33 33 33 32 31 31 32 32 31 31 32 32 32 32
36 30 30 29 35 33 30 35 36 36 36 35 37 36 49 52 46 41 45 45 39 38 39 38 37 35 34 34 34 34 33 32 33 32 31 32 31 31 31 31 31 31 31 30
31 30 27 25 28 29 25 31 34 36 39 39 33 41 48 47 45 45 46 44 41 43 41 40 39 38 38 37 36 34 34 33 32 32 32 31 31 31 31 31 30 30 29 29
27 25 24 19 15 14 31 34 38 38 40 42 41 44 47 48 49 44 44 44 45 45 43 42 42 41 40 39 36 36 34 32 32 31 31 31 31 30 30 29 30 29 29 29
33 28 15 18 18 25 30 33 32 31 34 40 40 43 45 47 43 44 46 46 47 48 50 47 47 45 43 38 36 34 32 32 31 31 30 31 31 30 29 29 29 28 28 28
29 32 18 8 4 7 33 34 38 35 27 43 43 41 40 38 33 39 40 42 44 43 43 44 45 44 39 37 36 33 31 31 30 32 32 32 31 31 29 29 28 29 29 29
20 22 20 20 14 14 28 35 36 21 30 37 37 35 35 33 35 40 42 39 41 40 41 41 41 39 39 36 35 32 32 30 32 33 32 31 31 31 31 30 29 28 28 28
14 14 13 17 14 9 32 30 26 31 33 34 35 36 36 39 39 39 40 36 37 38 38 38 35 35 35 34 34 32 31 33 33 32 31 30 29 31 30 28 28 27 27 25
13 21 15 19 20 27 31 33 33 32 33 36 35 35 35 36 37 38 36 39 36 37 36 36 34 34 32 33 34 32 33 33 31 29 28 27 27 29 29 27 26 25 26 25
17 16 21 22 30 32 35 37 34 37 35 33 35 38 38 36 38 38 37 37 33 35 35 37 32 31 31 31 33 34 33 31 29 27 26 26 26 26 26 28 27 26 25 24
23 20 18 26 32 33 35 37 39 39 39 36 35 33 33 34 35 35 34 33 33 33 35 34 33 33 33 31 31 32 30 29 27 26 26 25 26 25 25 26 26 27 27 27
25 27 23 24 34 34 36 40 38 34 36 34 29 32 34 33 36 36 35 38 38 36 35 31 31 31 31 28 29 27 28 28 27 25 25 25 25 24 25 24 24 31 30 31
MSLP
1017.93 1018.43 1018.86 1019.11 1019.07 1018.86 1019.40 1019.72 1020.16 1020.07 1019.71 1019.99 1020.12 1020.04 1019.96 1020.18 1020.53 1020.49 1020.80 1021.10 1020.99 1021.00 1021.03 1021.80 1022.18 1022.21 1022.40 1022.46 1022.39 1022.27 1022.21 1022.22 1022.58 1023.11 1023.28 1023.64 1023.83 1024.22 1024.72 1024.71 1024.74 1024.44 1024.21 1023.97
1018.46 1018.54 1018.48 1018.52 1018.95 1019.06 1019.42 1019.71 1019.91 1020.16 1020.12 1020.40 1020.29 1020.14 1019.62 1019.54 1019.58 1019.53 1019.60 1019.98 1020.08 1020.62 1021.10 1021.58 1021.99 1022.20 1022.24 1022.46 1022.32 1022.26 1022.27 1022.34 1022.62 1022.86 1022.89 1023.12 1023.78 1024.30 1024.88 1025.11 1025.11 1024.80 1024.73 1024.42
1018.90 1018.82 1018.40 1018.66 1018.89 1019.01 1019.64 1019.81 1020.02 1020.38 1020.42 1020.60 1020.72 1019.95 1019.05 1018.08 1018.09 1018.06 1018.26 1018.26 1018.90 1019.31 1020.14 1020.86 1021.43 1021.64 1022.02 1022.50 1022.54 1022.23 1022.32 1022.47 1022.49 1022.72 1022.87 1023.27 1023.89 1024.47 1025.09 1025.61 1025.59 1025.33 1025.05 1024.81
1019.20 1018.77 1018.67 1018.95 1019.22 1019.61 1020.06 1019.86 1019.99 1020.53 1021.10 1021.53 1021.50 1021.04 1019.07 1017.99 1017.65 1017.52 1017.36 1017.69 1018.04 1018.87 1019.89 1020.44 1020.97 1021.36 1021.84 1022.29 1022.48 1022.52 1022.52 1022.56 1022.44 1022.53 1022.78 1023.06 1023.40 1024.25 1024.94 1025.61 1025.96 1025.77 1025.39 1025.07
1019.40 1018.96 1019.10 1019.39 1019.34 1019.53 1020.02 1019.72 1020.22 1020.76 1021.48 1021.86 1022.10 1022.39 1018.97 1018.23 1017.48 1016.94 1016.70 1017.01 1017.55 1018.21 1018.95 1019.73 1020.09 1020.77 1021.48 1022.00 1022.34 1022.49 1022.71 1022.71 1022.57 1022.61 1022.75 1023.02 1023.34 1024.01 1024.85 1025.47 1026.06 1026.10 1025.89 1025.44
1019.45 1019.25 1019.26 1019.34 1019.30 1019.64 1019.96 1020.28 1020.99 1021.62 1022.34 1022.64 1021.69 1021.87 1019.43 1018.11 1016.63 1016.20 1016.13 1016.51 1017.01 1017.70 1018.40 1019.23 1019.88 1020.65 1021.30 1021.84 1022.21 1022.50 1022.71 1022.67 1022.70 1022.58 1022.52 1022.83 1023.30 1024.00 1024.76 1025.48 1025.98 1026.14 1026.21 1025.96
1020.13 1019.79 1019.50 1019.53 1019.70 1019.98 1020.56 1021.41 1022.11 1022.74 1023.30 1022.36 1021.69 1021.62 1018.68 1016.76 1015.91 1015.84 1016.00 1016.29 1016.62 1017.14 1018.23 1018.94 1019.66 1020.34 1021.02 1021.67 1022.04 1022.28 1022.41 1022.48 1022.54 1022.47 1022.57 1022.77 1023.15 1023.60 1024.13 1024.90 1025.56 1025.88 1026.22 1026.02
1020.87 1020.56 1019.92 1019.61 1019.68 1020.29 1020.84 1021.68 1022.43 1022.81 1023.18 1022.61 1021.68 1020.09 1017.19 1015.68 1015.28 1015.40 1015.56 1016.03 1016.49 1017.39 1018.06 1018.72 1019.18 1020.00 1020.72 1021.40 1021.78 1021.96 1022.06 1022.25 1022.38 1022.63 1022.78 1022.92 1023.14 1023.65 1024.29 1024.67 1025.21 1025.64 1025.93 1026.03
1020.89 1020.52 1019.79 1019.62 1019.70 1020.05 1020.81 1021.21 1021.90 1022.65 1023.10 1022.91 1021.10 1018.86 1016.66 1015.32 1015.36 1015.62 1015.85 1016.25 1016.90 1017.64 1018.17 1018.74 1019.46 1020.01 1020.53 1021.03 1021.36 1021.69 1022.09 1022.34 1022.56 1022.57 1022.77 1022.99 1023.30 1023.61 1024.20 1024.90 1025.25 1025.53 1025.71 1025.92
1020.61 1020.72 1020.30 1019.83 1019.93 1020.00 1020.06 1020.74 1021.79 1022.69 1023.05 1022.15 1020.04 1018.87 1016.84 1015.49 1015.49 1015.59 1016.08 1016.42 1017.04 1017.84 1018.66 1019.19 1019.82 1020.24 1020.55 1020.74 1021.20 1021.79 1022.16 1022.49 1022.60 1022.81 1022.93 1023.13 1023.30 1023.64 1023.98 1024.73 1025.25 1025.61 1025.95 1026.23
1020.79 1021.15 1021.13 1020.70 1020.29 1020.14 1020.38 1020.58 1021.08 1021.55 1021.83 1021.01 1019.78 1017.81 1015.90 1015.45 1015.18 1015.70 1016.08 1016.43 1016.76 1017.60 1018.41 1018.98 1019.60 1019.99 1020.15 1020.42 1020.76 1021.16 1021.75 1022.25 1022.56 1022.76 1022.99 1023.20 1023.43 1023.53 1023.64 1024.29 1025.10 1025.91 1026.26 1026.82
1021.08 1021.44 1021.58 1021.33 1020.43 1020.19 1019.95 1020.00 1020.39 1020.67 1020.68 1020.38 1019.36 1016.16 1015.16 1015.21 1014.89 1015.41 1016.09 1016.23 1016.64 1017.16 1017.95 1018.88 1019.27 1019.79 1020.10 1020.39 1020.63 1020.88 1021.43 1021.84 1022.23 1022.71 1023.10 1023.26 1023.56 1023.68 1023.87 1024.02 1024.42 1024.82 1025.93 1026.64
1021.35 1021.81 1022.51 1022.09 1021.55 1020.46 1020.32 1019.99 1020.04 1019.73 1019.81 1019.11 1018.69 1015.79 1014.84 1014.97 1014.97 1015.21 1015.85 1016.37 1016.91 1017.30 1017.96 1018.77 1019.53 1019.81 1020.04 1020.28 1020.63 1020.68 1021.00 1021.50 1022.02 1022.50 1023.02 1023.32 1023.56 1023.72 1024.03 1024.20 1024.50 1024.76 1025.14 1025.77
1021.35 1021.68 1022.05 1021.77 1021.14 1020.78 1020.74 1019.88 1019.78 1019.84 1019.77 1018.04 1017.60 1015.63 1014.47 1014.81 1014.96 1015.24 1015.64 1016.27 1016.72 1017.06 1017.58 1018.33 1019.06 1019.08 1019.52 1019.91 1020.19 1020.50 1020.67 1020.93 1021.42 1022.07 1022.68 1023.11 1023.35 1023.66 1023.99 1024.33 1024.64 1024.87 1025.24 1025.76
1022.10 1022.65 1022.78 1022.03 1021.56 1021.54 1021.15 1020.67 1020.25 1019.91 1018.93 1018.05 1015.96 1015.79 1013.06 1013.64 1014.34 1014.36 1014.89 1015.30 1015.97 1016.56 1017.50 1017.68 1017.90 1018.21 1018.86 1019.28 1019.43 1019.74 1020.01 1020.34 1020.87 1021.49 1022.11 1022.52 1022.92 1023.37 1023.78 1024.26 1024.55 1024.88 1025.25 1025.56
1023.57 1023.40 1023.41 1022.55 1022.18 1022.00 1021.28 1020.44 1019.53 1018.42 1017.91 1017.36 1015.85 1014.83 1012.88 1012.37 1013.42 1013.91 1014.25 1014.33 1015.23 1015.74 1015.96 1016.43 1016.86 1017.18 1017.23 1017.42 1017.84 1018.38 1018.76 1019.21 1020.01 1020.54 1020.92 1021.47 1022.17 1022.76 1023.24 1023.76 1024.33 1024.77 1025.33 1025.54
1024.86 1024.82 1024.51 1023.40 1023.24 1022.39 1020.83 1017.89 1018.00 1017.29 1016.47 1015.85 1015.22 1013.73 1012.60 1012.73 1013.21 1013.28 1013.34 1013.89 1014.28 1013.84 1014.01 1014.50 1014.67 1014.68 1014.87 1015.34 1015.96 1016.69 1017.45 1018.40 1019.06 1019.72 1020.50 1021.00 1021.65 1022.28 1022.90 1023.50 1024.04 1024.55 1025.05 1025.51
1025.40 1025.70 1025.52 1024.99 1024.58 1022.28 1017.75 1017.29 1016.85 1016.26 1015.44 1015.19 1014.97 1014.33 1013.26 1012.14 1012.47 1012.41 1013.10 1013.22 1013.10 1013.20 1012.95 1012.92 1013.07 1013.34 1013.48 1013.88 1014.80 1015.75 1016.50 1017.05 1017.80 1018.59 1019.29 1020.07 1020.52 1021.37 1022.20 1022.91 1023.42 1024.09 1024.65 1025.12
1025.14 1025.65 1025.80 1025.88 1024.75 1021.14 1018.21 1017.06 1016.98 1016.51 1015.38 1015.00 1014.64 1013.73 1013.17 1012.87 1012.51 1011.75 1012.87 1013.23 1013.19 1012.81 1012.12 1011.80 1011.63 1011.37 1011.69 1012.65 1013.50 1014.44 1015.22 1015.92 1016.69 1017.17 1017.79 1018.61 1019.43 1020.21 1021.12 1021.97 1022.71 1023.47 1024.21 1024.91
1025.91 1025.97 1026.42 1026.93 1025.28 1021.74 1016.11 1016.74 1016.64 1016.60 1014.61 1013.98 1013.88 1013.74 1013.66 1013.32 1013.07 1012.43 1013.07 1013.08 1012.88 1012.58 1012.24 1011.55 1011.14 1010.82 1011.15 1011.47 1012.41 1013.47 1014.19 1014.84 1015.39 1015.87 1016.13 1017.17 1018.07 1019.04 1019.74 1020.71 1021.82 1022.72 1023.57 1024.19
1026.88 1026.45 1025.86 1025.65 1024.56 1021.01 1017.80 1016.78 1016.44 1016.72 1013.37 1013.66 1013.98 1014.26 1014.26 1014.12 1013.54 1013.19 1012.86 1012.92 1012.57 1012.35 1012.05 1011.41 1010.69 1010.40 1010.24 1011.08 1011.89 1012.65 1013.32 1013.65 1013.49 1014.69 1015.84 1016.69 1017.41 1018.29 1019.25 1020.02 1020.94 1021.97 1022.90 1023.77
1025.99 1026.23 1025.64 1025.09 1023.74 1020.30 1016.88 1016.84 1016.61 1015.21 1014.40 1014.56 1014.59 1014.59 1014.40 1013.61 1013.06 1012.97 1012.49 1012.40 1012.40 1011.66 1011.30 1011.10 1010.73 1010.43 1010.30 1010.87 1011.41 1011.72 1012.08 1011.81 1013.35 1014.23 1015.03 1015.94 1016.89 1017.89 1018.91 1019.81 1020.67 1021.46 1022.24 1023.00
1024.75 1023.30 1023.24 1022.34 1019.17 1017.29 1016.24 1015.60 1015.15 1014.97 1014.71 1014.25 1014.61 1014.40 1014.24 1013.35 1012.64 1012.49 1012.16 1011.86 1011.79 1011.53 1010.95 1010.93 1010.34 1010.34 1010.42 1010.68 1010.76 1010.68 1010.09 1011.86 1013.12 1014.22 1014.88 1015.39 1016.22 1017.12 1017.99 1018.96 1019.98 1021.05 1021.60 1022.20
1022.89 1021.69 1020.94 1020.04 1016.76 1016.85 1015.98 1015.29 1014.99 1014.70 1014.25 1013.67 1013.68 1013.64 1013.59 1012.99 1012.25 1011.70 1011.46 1011.14 1011.13 1010.84 1010.62 1010.10 1010.15 1010.19 1010.06 1009.92 1009.94 1009.80 1010.59 1011.18 1011.98 1012.92 1013.97 1015.07 1015.91 1016.43 1017.35 1018.25 1019.12 1019.84 1020.67 1021.26
1021.39 1020.65 1019.73 1017.77 1017.34 1016.32 1014.79 1014.23 1013.67 1013.43 1013.15 1012.95 1012.87 1012.86 1012.88 1012.50 1011.67 1011.37 1011.06 1010.66 1010.42 1010.29 1010.11 1009.96 1009.63 1009.49 1009.03 1009.14 1008.93 1009.13 1009.94 1010.68 1011.48 1012.13 1013.00 1014.10 1015.20 1016.14 1016.62 1017.28 1018.09 1018.85 1019.42 1019.77
1019.65 1018.94 1019.02 1016.78 1016.07 1014.71 1011.99 1011.76 1012.69 1012.95 1012.52 1012.24 1012.30 1011.99 1011.92 1011.75 1010.88 1010.74 1010.08 1009.62 1009.36 1009.24 1009.14 1009.10 1008.75 1008.43 1008.06 1008.19 1008.10 1008.30 1009.04 1009.76 1010.81 1011.84 1012.42 1013.22 1014.18 1015.34 1016.26 1016.98 1018.10 1018.78 1019.37 1019.84
Wind_Speed
3 5 4 8 4 3 4 3 3 3 1 3 7 7 7 9 7 10 9 10 12 14 7 7 6 5 5 5 5 5 6 6 7 4 4 3 3 3 3 3 5 5 4 4
5 1 2 4 2 4 3 2 1 1 2 3 6 10 11 10 12 15 15 16 16 9 8 9 8 7 7 6 6 6 5 5 4 4 2 3 3 3 3 3 3 5 5 5
3 2 2 4 3 3 1 2 3 2 1 2 5 9 6 7 15 13 16 15 17 17 16 13 11 9 7 7 6 6 5 4 3 5 5 5 5 4 3 2 3 4 5 5
2 3 3 3 3 3 1 4 2 4 2 3 2 8 7 4 8 11 16 15 14 14 12 11 12 9 8 7 5 5 5 4 3 6 6 9 4 3 3 3 1 3 4 5
3 1 3 2 3 4 5 1 1 2 3 1 3 0 10 4 6 9 13 14 13 14 16 15 14 12 8 8 7 6 5 3 1 4 6 6 6 4 5 4 4 3 4 5
3 0 3 5 3 4 2 3 5 4 2 2 4 6 7 4 6 3 4 9 10 11 13 11 10 10 10 7 6 6 6 4 2 3 6 8 9 9 7 5 4 3 2 3
2 1 1 1 1 2 2 5 3 5 2 6 1 3 10 8 9 8 7 8 10 9 12 12 14 14 12 10 8 7 7 6 5 4 5 7 8 10 11 9 5 5 3 2
4 4 8 5 7 7 6 7 5 5 3 5 2 7 8 6 5 4 5 5 6 8 11 14 15 13 12 11 9 8 8 7 6 6 6 5 6 4 4 6 5 4 3 3
5 5 3 2 3 8 4 4 5 2 1 1 5 8 10 5 6 5 7 3 6 7 10 12 10 11 12 11 11 10 7 6 6 7 6 6 6 7 7 6 5 4 4 5
4 2 2 2 2 2 6 5 2 1 3 6 5 6 9 5 4 3 7 8 7 6 6 7 8 9 7 7 7 7 7 8 6 6 5 5 6 6 7 6 6 6 4 4
6 3 3 2 6 9 3 3 3 5 6 5 3 7 7 6 7 5 8 9 9 8 9 10 10 9 10 8 8 9 8 8 7 6 6 7 7 8 9 8 6 4 5 4
6 4 5 10 5 4 3 9 8 6 6 5 3 14 4 9 6 6 9 9 6 6 8 8 10 10 9 10 9 10 8 9 8 6 6 6 5 6 8 9 10 10 8 6
5 3 2 10 7 2 7 6 7 6 2 13 7 12 3 4 5 7 8 7 6 7 7 7 7 9 10 10 10 10 10 9 8 8 7 6 6 7 7 8 9 8 10 8
2 4 8 10 5 2 5 15 7 11 10 19 16 25 21 9 7 7 7 8 9 9 10 9 9 11 10 10 11 10 10 10 11 10 9 9 8 8 8 7 8 9 8 8
2 4 1 9 8 2 3 5 5 7 17 16 23 19 31 20 14 14 10 9 9 8 9 13 14 12 11 12 11 11 11 11 11 11 11 10 9 8 7 8 8 7 8 8
4 3 2 16 18 12 14 15 18 20 17 13 20 22 29 23 9 5 11 12 7 10 15 14 13 13 16 18 16 14 14 14 13 14 14 12 11 11 11 10 10 9 8 8
1 2 0 14 3 5 12 25 22 20 21 17 20 26 26 24 10 12 12 9 11 15 15 16 19 20 19 19 18 19 16 14 15 14 13 13 13 13 12 11 11 11 11 9
7 4 2 4 4 14 10 0 12 22 25 22 21 23 27 28 19 8 8 9 13 12 13 14 15 16 17 15 15 14 15 16 16 16 15 14 15 14 13 13 13 11 10 11
12 6 3 5 5 15 20 9 4 6 12 12 14 19 22 21 12 17 5 6 11 14 14 14 15 18 15 15 16 16 16 17 17 18 18 17 17 17 16 15 14 12 10 9
6 8 5 2 4 11 23 1 4 3 21 17 16 15 9 5 8 7 5 6 10 9 9 11 13 12 9 15 16 16 17 18 18 19 20 17 18 18 18 17 15 12 11 11
5 5 15 13 10 11 7 7 5 9 24 5 3 0 4 4 5 9 12 8 7 8 12 10 10 10 14 10 15 16 15 19 21 16 15 16 17 17 16 15 12 13 11 10
10 9 6 5 6 14 7 3 10 8 4 5 4 5 11 16 16 12 15 8 9 9 9 9 7 9 6 10 14 16 19 18 14 15 16 16 16 13 12 14 12 12 12 11
4 10 9 14 13 7 4 5 6 4 7 15 12 10 11 17 16 13 14 15 9 10 8 8 7 8 6 10 14 16 17 12 13 14 15 15 15 14 14 15 14 11 12 11
4 5 7 2 14 16 17 14 10 12 17 9 10 16 16 20 20 19 14 14 7 8 9 10 7 9 10 11 15 16 9 13 15 16 15 14 15 15 13 11 11 12 11 10
7 5 5 17 15 17 23 22 21 22 20 16 12 10 11 14 16 14 12 10 8 8 11 9 10 12 15 12 14 11 10 14 15 15 14 14 13 14 13 12 12 11 11 13
7 12 10 20 21 21 32 26 14 14 19 14 8 13 15 13 20 16 16 16 15 14 11 10 12 13 13 11 12 9 13 17 16 14 12 12 12 12 11 10 8 16 13 18
Wind_Direction
16 80 160 194 206 110 139 149 181 258 291 176 248 268 246 214 221 229 213 212 216 223 185 186 194 186 184 199 201 208 175 163 143 152 135 134 116 101 56 52 46 43 38 39
25 58 245 200 261 86 116 101 262 331 344 184 279 265 253 192 218 217 210 214 217 208 177 189 189 194 190 199 199 202 190 182 165 170 159 119 140 93 91 65 38 40 34 29
109 326 159 106 103 86 353 185 224 247 322 321 334 281 256 242 220 209 219 219 215 202 189 189 191 187 182 199 193 173 166 178 171 152 116 95 96 96 95 24 27 19 38 35
254 302 113 139 115 107 287 271 147 154 118 241 85 286 292 267 251 221 226 219 209 201 195 187 183 186 184 189 179 172 162 151 148 166 142 161 150 149 149 133 81 38 36 43
264 3 120 99 198 157 235 198 184 193 222 321 234 146 272 291 271 243 230 222 211 196 185 186 186 183 175 167 175 173 174 161 179 195 170 170 143 116 134 122 114 73 36 43
199 169 145 201 219 180 217 61 26 27 61 346 230 162 279 240 219 279 258 220 205 185 185 184 178 165 172 170 166 168 177 177 198 192 178 168 157 150 145 141 140 121 74 45
29 277 325 127 116 38 121 69 328 345 339 236 186 188 253 268 259 232 263 246 212 181 176 173 172 177 173 178 176 174 179 185 181 173 174 162 163 161 159 159 157 150 153 115
173 298 182 191 176 185 198 165 178 243 240 288 88 239 252 242 307 287 304 296 206 181 186 188 186 178 175 178 180 181 180 178 176 167 163 157 154 147 142 146 147 147 151 151
166 258 293 183 145 151 211 185 183 348 114 309 239 283 290 304 271 254 269 292 227 202 193 188 174 177 178 181 188 185 182 178 178 173 158 150 137 135 139 135 137 150 143 149
207 262 201 270 124 222 164 164 149 3 258 256 268 261 240 282 303 262 249 247 237 198 186 172 180 181 183 183 178 172 179 184 181 171 166 159 147 135 130 138 149 153 155 144
167 157 267 136 206 181 157 209 207 176 184 216 282 261 221 251 226 249 257 235 212 205 193 184 188 189 188 182 176 180 177 175 177 174 166 156 160 156 147 144 137 137 125 149
208 186 219 228 253 243 239 221 188 190 226 234 223 259 256 247 243 213 255 252 230 195 193 199 194 188 190 192 184 184 183 178 175 168 169 173 168 159 155 156 159 151 152 151
193 246 13 326 340 324 223 203 226 251 120 236 231 265 331 287 283 263 267 266 243 207 197 198 195 202 201 198 195 188 184 182 174 168 172 171 174 168 172 163 157 157 154 146
170 195 182 210 196 156 205 233 232 225 242 250 241 261 251 261 283 284 282 263 235 217 206 203 213 215 208 206 200 198 193 182 175 175 180 182 179 177 171 164 161 156 152 152
51 214 247 258 260 265 251 259 260 241 246 241 255 247 268 254 253 262 236 254 236 220 212 219 220 212 209 210 206 201 195 186 179 179 183 188 180 170 161 166 166 156 157 158
12 257 255 265 271 261 262 260 241 239 250 261 258 265 257 276 277 272 251 252 251 229 226 224 218 212 213 212 209 199 196 189 182 188 190 182 174 172 176 172 170 163 165 160
127 250 194 268 14 0 257 234 247 249 249 241 249 253 277 282 261 253 258 259 228 240 228 219 217 217 220 212 203 202 195 182 189 192 190 182 178 181 180 172 168 175 172 165
169 183 196 256 52 258 255 324 241 243 251 252 255 264 266 269 281 254 237 240 258 261 249 233 226 230 228 217 203 196 189 189 190 191 188 186 179 179 176 175 180 177 173 178
209 191 253 238 221 294 296 275 228 182 273 262 251 255 266 279 291 281 289 312 292 285 286 260 241 230 224 202 193 191 189 190 191 192 191 187 183 179 178 183 182 177 173 177
204 223 154 59 211 249 273 300 229 34 279 252 254 256 256 313 264 284 315 322 305 301 294 303 276 246 209 201 188 189 193 193 198 199 195 185 183 184 182 180 178 177 179 178
147 198 223 234 245 275 261 206 146 175 256 48 114 199 295 275 233 284 298 278 265 273 290 293 288 229 225 183 180 196 195 204 204 193 187 185 185 184 184 178 173 170 172 168
165 173 202 213 240 274 215 90 180 220 293 148 196 239 277 275 277 271 272 246 266 282 300 296 275 255 211 180 185 198 206 208 192 186 184 182 181 180 176 172 171 171 171 170
272 190 191 190 213 227 233 237 234 214 268 284 281 274 259 278 283 284 266 275 253 278 281 275 259 264 214 197 201 206 215 180 179 182 187 182 175 178 175 173 171 171 175 177
282 193 234 310 248 263 273 276 250 262 258 264 257 272 275 274 278 277 269 269 257 265 277 290 280 250 235 207 210 220 189 175 174 180 180 177 180 175 172 176 177 177 180 180
202 119 227 257 281 282 268 261 266 267 269 275 274 254 253 270 276 272 266 261 259 250 265 260 252 248 238 213 213 199 175 170 181 181 176 179 182 184 175 181 181 185 192 188
191 238 247 263 258 248 268 265 264 257 269 273 248 278 265 252 271 269 269 271 272 272 262 258 262 256 244 204 208 181 171 173 176 182 179 179 178 176 179 172 169 198 190 194